{"data":{"norad_id":67648,"intl_designator":"2026-022A","name":"STARLINK-36719","alt_names":[],"object_type":"PAYLOAD","status":"ACTIVE","operator":null,"country":"US","launch_date":"2026-02-02","launch_site_code":"AFWTR","launch_vehicle":null,"mission":null,"orbit_class":"UNKNOWN","rcs_meters":null,"size_class":null,"mass_kg":null,"dimensions":null,"purposes":["comms"],"wikipedia_slug":null,"has_3d_model":false,"image_url":null,"decayed_at":null,"tle_current":{"epoch":"2026-05-25T01:42:11.250720Z","epoch_age_seconds":68823,"freshness":"FRESH","line1":"1 67648U 26022A   26145.07096355  .00012001  00000+0  37335-3 0  9993","line2":"2 67648  97.2831 178.2558 0001963  90.9739 269.1728 15.33453758 17271","mean_motion":15.33453758,"eccentricity":0.0001963,"inclination_deg":97.2831,"raan_deg":178.2558,"arg_perigee_deg":90.9739,"mean_anomaly_deg":269.1728,"bstar":0.00037335,"rev_number":1727,"period_min":93.905668331213,"perigee_km":464.17370765277,"apogee_km":466.86052625909,"semimajor_km":6843.6541169559,"source":"CELESTRAK","updated_at":"2026-05-25T13:38:21.656035Z"}}}